Regional Weather Roundup
Issued by NWS

Home | Current Version | Previous Version | Text Only | Print | Product List | Glossary Off
Versions: 1 2 3 4 5 6 7 8 9 10 11 12 13 14 15 16 17 18 19 20 21 22 23 24 25 26 27 28 29 30 31 32 33 34 35 36 37 38 39 40 41 42 43 44 45 46 47 48 49 50

000
ASUS44 KMEG 220400
RWRTN
TENNESSEE HOURLY STATE WEATHER ROUNDUP
NATIONAL WEATHER SERVICE MEMPHIS TN
1100 PM CDT TUE OCT 21 2014

TNZ002-004-019-021-049-052-054-088>092-220500-
WEST TENNESSEE

CITY           SKY/WX    TMP DP  RH WIND       PRES   REMARKS
MEMPHIS INTL   CLEAR     58  49  72 CALM      30.11R
JACKSON        CLEAR     55  47  74 NE6       30.13R
DYERSBURG      CLEAR     55  39  54 NE6       30.15R
UNION CITY     CLEAR     50  45  81 CALM      30.14R
PARIS          CLEAR     48  43  81 NE6       30.15S
LEXINGTON      CLEAR     54  45  71 NE3       30.12R
SAVANNAH       CLEAR     48  48 100 CALM      30.12S
$$

TNZ008-025-027-028-033-062-065-066-220500-
NORTH MIDDLE TENNESSEE

CITY           SKY/WX    TMP DP  RH WIND       PRES   REMARKS
NASHVILLE      CLEAR     53  44  71 NE8       30.15R
CLARKSVILLE    CLEAR     51  43  74 NE7       30.15S
CROSSVILLE     CLEAR     47  39  74 N6        30.12S
$$

TNZ061-075-076-078-094-096-097-220500-
SOUTH MIDDLE TENNESSEE

CITY           SKY/WX    TMP DP  RH WIND       PRES   REMARKS
SHELBYVILLE    CLEAR     50  46  87 N6        30.13R
$$

TNZ017-018-042-046-047-220500-
NORTHEAST TENNESSEE

CITY           SKY/WX    TMP DP  RH WIND       PRES   REMARKS
TRI CITIES     PTCLDY    47  39  74 CALM      30.09F
ELIZABETHTON   CLOUDY    43  37  81 CALM      30.09S
$$

TNZ012-013-036-069-073-074-220500-
CENTRAL EAST TENNESSEE

CITY           SKY/WX    TMP DP  RH WIND       PRES   REMARKS
KNOXVILLE      PTCLDY    49  40  71 N5        30.10S
OAK RIDGE      PTCLDY    48  43  82 CALM      30.13S
GATLINBURG     PTCLDY    45  37  76 CALM      30.10S
$$

TNZ083-085-099-220500-
SOUTHEAST TENNESSEE

CITY           SKY/WX    TMP DP  RH WIND       PRES   REMARKS
CHATTANOOGA    CLEAR     57  44  62 N10       30.09R
$$

SKY/WX REPORTED AS FAIR MEANS FEW OR NO CLOUDS BELOW
12 THOUSAND FEET.




USA.gov is the U.S. government's official web portal to all federal, state and local government web resources and services.